Showing default

PROGRESS MS-34, 68837

Orbit data source: Space-Track

PROGRESS MS-34, 68837 is a Commonwealth of Independent States-origin payload satellite in LEO that was launched on Sat, 25 Apr 2026 UTC launched from the Tyuratam Missile And Space Complex (TTMTR). Payload-class satellites include a variety of spacecraft equipped with specific instruments for various scientific and technological missions. These include communications satellites like Starlink; space stations such as the ISS; scientific satellites like the Hubble; Earth observation satellites from companies like Planet Labs, Umbra, and HawkEye 360; GPS; miniature CubeSats for education and research; and military/defense satellites.

Loading next visibility...
Identifier
68837, 2026-093A
Orbit
LEO
Country
Flag of CISCIS
Related business
None
Manufacturer
Unknown
Mission
Operational spacecraft
Bus & Motor
Unknown
Mass
Unknown
Launch date (UTC)
2026-04-25 (6 days ago)
Launch vehicle
Unknown
Launch site
Tyuratam Missile And Space Complex (TTMTR)
Object type
Payload
Rocket body
Debris
Shape & HBR
Unknown
Radar Cross Section
RCS unknown

Expand to show TLE details & history
Last TLE update: 20 hours ago

TLE from 20 hours ago
0 PROGRESS MS-34
1 68837U 26093A   26120.65152929  .00006769  00000-0  13072-3 0  9996
2 68837  51.6314 175.3907 0007169   8.3355 351.7751 15.49036282   530
Epoch: 2026-04-30T15:38Z
TLE epoch observation values (Epoch: 2026-04-30T15:38:12.130Z)
Latitude
-0.00005°
Longitude
82.24505°
Altitude
415.461 km
Speed
7.666 km/s
True Right ascension
11h 41m 33s
True Declination
0° 00' 00"
Sunlit
Object was in full shadow at epoch
Visualization orbit readout
Latitude
Unknown
Longitude
Unknown
Altitude
Unknown
Speed
Unknown
Apparent Right ascension
Unknown
Apparent Declination
Unknown
Sunlit
N/A
Visualization observer readout
Local Sidereal Time
19:16:27
Azimuth
Unknown
Elevation
Unknown
Doppler factor
Unknown
Orbital elements
Apogee altitude
424.927 km
Perigee altitude
415.18 km
Semi-major axis
6,798.19 km
Eccentricity
0.00072
Inclination
51.6314°
RAAN
175.3907°
Arg. of periapsis
8.3355°
True anomaly
351.76334°
Mean anomaly
351.7751°
Eccentric anomaly
351.76922°
Mean motion
3.87216 °/min
Orbital period
92.97 mins
BSTAR
0.00013072
Loading maneuver chart data...
Computing Atmospheric mass density...
Loading historical data...
Loading historical data...
Loading historical data...
Loading historical data...
Loading historical data...
Loading historical data...
Loading historical data...
Other satellites on launch #93 in the year 2026 (2026-04-25 UTC)

Documentation

Showing up to 5 results
|